Regional Weather Roundup
Issued by NWS

Home | Current Version | Previous Version | Text Only | Print | Product List | Glossary Off
Versions: 1 2 3 4 5 6 7 8 9 10 11 12 13 14 15 16 17 18 19 20 21 22 23 24 25 26 27 28 29 30 31 32 33 34 35 36 37 38 39 40 41 42 43 44 45 46 47 48 49 50

000
ASUS43 KTOP 211159
RWRKS

WEATHER ROUNDUP FOR KANSAS
NATIONAL WEATHER SERVICE GOODLAND KS
700 AM CDT THU AUG 21 2014

NOTE:  "FAIR" INDICATES FEW OR NO CLOUDS BELOW 12,000 FEET WITH NO
SIGNIFICANT WEATHER AND/OR OBSTRUCTIONS TO VISIBILITY.

KSZ001>006-013>018-027>032-041>047-211300-
NORTHWEST KANSAS

CITY           SKY/WX    TMP DP  RH WIND       PRES   REMARKS
GOODLAND       PTCLDY    64  58  80 N7        29.91S
6HR MIN TEMP:  63; 6HR MAX TEMP:  68;

HAYS           MOCLDY    79  61  53 SW13G18   29.84R
HILL CITY      MOCLDY    75  67  76 S6        29.81S
6HR MIN TEMP:  75; 6HR MAX TEMP:  87; 6HR PCP:  0.03;

RUSSELL        PTCLDY    77  60  55 S15       29.81R
6HR MIN TEMP:  77; 6HR MAX TEMP:  82;

$$

KSZ061>065-074>080-084>089-211300-
SOUTHWEST KANSAS

CITY           SKY/WX    TMP DP  RH WIND       PRES   REMARKS
DODGE CITY     CLEAR     76  63  64 S14       29.88R
6HR MIN TEMP:  76; 6HR MAX TEMP:  82;

ELKHART          N/A     70  59  68 SW13        N/A
GARDEN CITY    PTCLDY    72  63  73 SW3       29.89R
6HR MIN TEMP:  72; 6HR MAX TEMP:  79;

GREAT BEND     CLEAR     75  61  60 S17       29.84R
LIBERAL        CLEAR     77  61  57 SW17      29.91S
$$

KSZ066>073-081>083-090>101-211300-
SOUTHEAST KANSAS

CITY           SKY/WX    TMP DP  RH WIND       PRES   REMARKS
CHANUTE        CLEAR     77  70  79 S15       29.94R
6HR MIN TEMP:  76; 6HR MAX TEMP:  80;

COFFEYVILLE    CLEAR     78  71  79 S15G23    29.94R
6HR MIN TEMP:  77; 6HR MAX TEMP:  81;

HUTCHINSON     CLEAR     76  65  68 S13       29.88R
6HR MIN TEMP:  76; 6HR MAX TEMP:  82;

NEWTON         CLEAR     77  63  61 S17G26    29.92R
PARSONS        CLEAR     76  69  79 S8        29.96R
6HR MIN TEMP:  76; 6HR MAX TEMP:  79;

WICHITA INTL   PTCLDY    76  68  76 S13       29.89R
6HR MIN TEMP:  75; 6HR MAX TEMP:  81;

WICHITA JABRA  CLEAR     77  68  73 S15       29.90R
6HR MIN TEMP:  77; 6HR MAX TEMP:  81;

WINFIELD       CLEAR     77  69  76 S14       29.93R
6HR MIN TEMP:  77; 6HR MAX TEMP:  81;

$$

KSZ007>012-019>026-033>040-048>060-102>105-211300-
NORTHEAST KANSAS

CITY           SKY/WX    TMP DP  RH WIND       PRES   REMARKS
CONCORDIA      PTCLDY    77  66  68 S18G25    29.82R
6HR MIN TEMP:  76; 6HR MAX TEMP:  81;

EMPORIA        CLEAR     74  69  85 S15       29.90R
6HR MIN TEMP:  74; 6HR MAX TEMP:  79;

LAWRENCE       CLEAR     80  69  69 S13       29.88R
6HR MIN TEMP:  80; 6HR MAX TEMP:  83;

MANHATTAN      CLEAR     79  68  69 S14       29.85R
6HR MIN TEMP:  79; 6HR MAX TEMP:  84;

OLATHE IND     PTCLDY    77  70  79 S13       29.92R
6HR MIN TEMP:  77; 6HR MAX TEMP:  79;

OLATHE EXE     PTCLDY    76  70  82 S13       29.91R
6HR MIN TEMP:  75; 6HR MAX TEMP:  77;

SALINA         PTCLDY    78  65  63 S13       29.84R
6HR MIN TEMP:  78; 6HR MAX TEMP:  82;

TOPEKA BILLARD CLEAR     80  71  74 S13G21    29.87R
6HR MIN TEMP:  80; 6HR MAX TEMP:  83;

TOPEKA FORBES    N/A     77  69  76 S16       29.88R
6HR MIN TEMP:  77; 6HR MAX TEMP:  81;

$$



USA.gov is the U.S. government's official web portal to all federal, state and local government web resources and services.